Location: Champs
(48.8539°N, 2.6040°E)
Time: 16:26:51
(UTC+00:00)

Cosmos 2056 Rocket - Pass Details

Date: 02 June 2022
Orbit: 741 x 801 km, 74.0° (Epoch: 01 July)

Event Time Altitude Azimuth Distance (km) Brightness Sun altitude
Exits shadow 01:06:35 11° 145° (SE) 2,241 5.6 -16.8°
Maximum altitude 01:10:19 22° 97° (E) 1,643 5.3 -16.6°
Drops below altitude 10° 01:14:17 10° 48° (NE) 2,337 7.0 -16.4°
Sets 01:17:10 0° 34° (NE) 3,282 8.4 -16.2°
